Terminal Aerodrome Forecast
Issued by NWS

Home | Current Version | Previous Version | Text Only | Print | Product List | Glossary On
Versions: 1 2 3 4 5 6 7 8 9 10 11 12
000
FTUS45 KMSO 301700
TAFSMN
TAF
KSMN 301720Z 3018/3118 VRB03KT P6SM SCT090 SCT150
     FM302000 16007KT P6SM VCTS BKN120CB
     FM310000 13010G25KT P6SM VCTS BKN090CB
     FM310200 VRB06KT P6SM SCT150
      AMD LTD TO CLD VIS AND WIND=

USA.gov is the U.S. government's official web portal to all federal, state and local government web resources and services.